Stations météo

Publicité
Sete, France (7641): Température de l'air & dewpoint: 10.08.2017 17:00:00 - 16.08.2017 17:00:00 (CEST)Sete, France (7641): Vitesse du vent & gusts: 10.08.2017 17:00:00 - 16.08.2017 17:00:00 (CEST)Sete, France (7641): Direction du vent: 10.08.2017 17:00:00 - 16.08.2017 17:00:00 (CEST)Sete, France (7641): reduced air pressure: 10.08.2017 17:00:00 - 16.08.2017 17:00:00 (CEST)Sete, France (7641): visibility: 10.08.2017 17:00:00 - 16.08.2017 17:00:00 (CEST)Sete, France (7641): Quantités de précipitations: 10.08.2017 17:00:00 - 16.08.2017 17:00:00 (CEST)
Date & Time tt [°C] td [°C] ff [km/h] ff [knt] fx [km/h] fx [knt] dd ppp [hPa] vv [km] rr [mm]
16.08.2017 17:00:00 27,5 14,5 13 7 26 14 SW 1017,6 20 0,0
16.08.2017 16:00:00 26,9 14,0 16 9 28 15 SW 1017,9 - 0,0
16.08.2017 15:00:00 26,9 12,5 10 6 21 11 SSW 1018,5 - 0,0
16.08.2017 14:00:00 25,7 12,9 11 6 20 11 SW 1019,0 20 0,0
16.08.2017 13:00:00 25,1 14,5 9 5 16 9 SSW 1019,2 - 0,0
16.08.2017 12:00:00 26,7 14,8 5 3 10 6 S 1019,2 - 0,0
16.08.2017 11:00:00 25,9 14,0 4 2 11 6 E 1019,6 15 0,0
16.08.2017 10:00:00 24,1 14,8 5 3 16 9 ENE 1019,5 - 0,0
16.08.2017 09:00:00 24,3 13,8 8 4 20 11 N 1019,4 - 0,0
16.08.2017 08:00:00 22,1 14,0 11 6 21 11 NNW 1019,4 20 0,0
16.08.2017 07:00:00 20,5 15,7 3 2 23 12 SSE 1019,2 - 0,0
16.08.2017 06:00:00 20,5 15,3 11 6 19 11 WNW 1019,3 - 0,0
16.08.2017 05:00:00 20,4 16,2 11 6 15 8 W 1019,5 20 0,0
16.08.2017 04:00:00 20,9 15,0 3 2 10 5 NNE 1019,6 - 0,0
16.08.2017 03:00:00 20,7 16,3 6 4 17 9 N 1019,6 - 0,0
16.08.2017 02:00:00 21,1 17,9 5 3 8 4 WSW 1020,3 - 0,0
16.08.2017 01:00:00 21,3 17,7 4 2 16 9 S 1020,5 - 0,0
16.08.2017 00:00:00 21,0 17,6 12 6 18 10 NNW 1020,1 - 0,0
15.08.2017 23:00:00 21,8 19,0 8 4 15 8 N 1019,9 - 0,0
15.08.2017 22:00:00 21,0 18,8 4 2 16 9 SSW 1020,3 - 0,0
15.08.2017 21:00:00 21,2 19,3 11 6 19 11 SSW 1019,7 - 0,0
15.08.2017 20:00:00 21,0 18,6 5 3 14 7 ESE 1019,1 8 0,0
15.08.2017 19:00:00 22,0 18,2 7 4 21 11 E 1018,6 - 0,0
15.08.2017 18:00:00 22,4 18,0 13 7 21 11 SSW 1020,4 - 0,0
15.08.2017 17:00:00 23,6 16,9 11 6 19 11 SSW 1020,0 - 0,0
15.08.2017 16:00:00 25,5 17,4 7 4 18 10 SSE 1020,0 - 0,0
15.08.2017 15:00:00 22,9 17,4 8 5 21 11 ESE 1019,8 - 0,0
15.08.2017 14:00:00 22,5 18,3 9 5 24 13 ESE 1020,1 8 0,0
15.08.2017 13:00:00 23,1 18,8 9 5 21 12 E 1020,1 - 0,0
15.08.2017 12:00:00 23,8 18,4 11 6 24 13 E 1020,3 - 0,0
15.08.2017 11:00:00 22,7 18,2 11 6 24 13 E 1020,6 15 0,0
15.08.2017 10:00:00 22,2 18,2 10 5 21 12 E 1020,8 - 0,0
15.08.2017 09:00:00 21,0 18,0 10 5 23 12 NE 1021,0 - 0,0
15.08.2017 08:00:00 19,5 18,2 10 5 21 11 ENE 1020,5 15 0,0
15.08.2017 07:00:00 19,3 18,5 9 5 17 9 NE 1020,6 - 0,0
15.08.2017 06:00:00 19,4 18,6 6 4 20 11 NE 1020,4 - 0,0
15.08.2017 05:00:00 19,0 18,2 6 3 16 9 ENE 1019,8 15 0,0
15.08.2017 04:00:00 19,1 18,3 8 4 19 10 ENE 1019,7 - 0,0
15.08.2017 03:00:00 19,5 18,7 8 5 16 9 NE 1019,9 - 0,0
15.08.2017 02:00:00 19,9 19,1 8 4 17 9 ENE 1020,1 - 0,0
15.08.2017 01:00:00 20,2 19,4 8 4 21 11 ENE 1020,0 - 0,0
15.08.2017 00:00:00 20,4 19,6 8 5 19 10 E 1019,9 - 0,0
14.08.2017 23:00:00 20,7 19,5 6 3 14 7 E 1020,0 - 0,0
14.08.2017 22:00:00 20,9 19,6 4 2 16 8 E 1019,7 - 0,0
14.08.2017 21:00:00 21,4 19,7 9 5 18 10 SSE 1019,2 - 0,0
14.08.2017 20:00:00 21,6 19,0 8 4 19 10 SSE 1018,9 15 0,0
14.08.2017 19:00:00 22,5 18,5 8 4 18 10 SSE 1018,7 - 0,0
14.08.2017 18:00:00 23,5 18,4 8 4 18 10 SSE 1018,9 - 0,0
14.08.2017 17:00:00 24,5 18,2 7 4 20 11 SE 1018,7 15 0,0
14.08.2017 16:00:00 23,7 17,9 8 5 18 10 SE 1019,0 - 0,0
14.08.2017 15:00:00 23,5 17,9 7 4 20 11 ESE 1019,2 - 0,0
14.08.2017 14:00:00 22,8 18,3 8 5 22 12 E 1019,6 10 0,0
14.08.2017 13:00:00 23,1 17,3 11 6 25 14 E 1019,7 - 0,0
14.08.2017 12:00:00 22,6 16,4 11 6 27 15 E 1019,6 - 0,0
14.08.2017 11:00:00 22,1 17,0 13 7 32 17 E 1019,3 10 0,0
14.08.2017 10:00:00 21,4 17,0 15 8 31 17 ENE 1018,8 - 0,0
14.08.2017 09:00:00 20,3 16,9 17 9 29 16 NE 1018,7 - 0,0
14.08.2017 08:00:00 20,7 16,5 16 9 26 14 NNE 1018,3 25 0,0
14.08.2017 07:00:00 19,7 16,5 14 8 23 12 NNE 1017,9 - 0,0
14.08.2017 06:00:00 19,5 16,7 13 7 20 11 NNE 1017,8 - 0,0
14.08.2017 05:00:00 19,8 15,2 12 6 26 14 NE 1017,9 - 0,0
14.08.2017 04:00:00 21,8 14,2 16 8 23 13 NNE 1017,7 - 0,0
14.08.2017 03:00:00 21,5 15,1 15 8 23 12 NNE 1017,6 - 0,0
14.08.2017 02:00:00 21,2 15,1 12 6 19 10 NNE 1017,6 - 0,0
14.08.2017 01:00:00 22,8 13,0 13 7 18 10 N 1017,8 - 0,0
14.08.2017 00:00:00 22,8 14,4 5 3 17 9 WNW 1017,9 - 0,0
13.08.2017 23:00:00 22,8 14,6 4 2 14 8 NW 1017,7 - 0,0
13.08.2017 22:00:00 22,9 14,2 6 3 27 15 W 1017,5 - 0,0
13.08.2017 21:00:00 23,2 14,7 21 12 36 20 WSW 1016,7 - 0,0
13.08.2017 20:00:00 22,5 14,3 24 13 38 20 WSW 1016,5 - 0,0
13.08.2017 19:00:00 23,5 15,3 21 11 35 19 SW 1016,4 - 0,0
13.08.2017 18:00:00 25,2 12,1 17 9 29 16 SSW 1016,7 - 0,0
13.08.2017 17:00:00 25,7 12,2 17 9 32 17 SSW 1017,0 25 0,0
13.08.2017 16:00:00 24,9 12,1 19 11 35 19 SSW 1017,4 - 0,0
13.08.2017 15:00:00 25,2 11,7 16 9 30 16 SSW 1017,9 - 0,0
13.08.2017 14:00:00 25,0 11,5 14 8 25 14 SSW 1018,5 25 0,0
13.08.2017 13:00:00 24,3 10,9 14 7 24 13 SSW 1019,0 - 0,0
13.08.2017 12:00:00 24,4 11,0 14 8 23 12 SW 1019,3 - 0,0
13.08.2017 11:00:00 23,6 12,6 11 6 19 11 SSW 1019,5 25 0,0
13.08.2017 10:00:00 23,9 12,8 8 4 14 7 SSW 1019,2 - 0,0
13.08.2017 09:00:00 23,5 12,5 2 1 8 4 S 1019,0 - 0,0
13.08.2017 08:00:00 20,7 11,9 8 5 12 7 W 1018,6 20 0,0
13.08.2017 07:00:00 21,0 11,3 5 3 29 15 NW 1018,5 - 0,0
13.08.2017 06:00:00 21,4 11,4 15 8 33 18 NW 1018,2 - 0,0
13.08.2017 05:00:00 20,8 12,0 28 15 37 20 NW 1018,4 - 0,0
13.08.2017 04:00:00 20,9 12,1 23 13 37 20 NW 1018,8 - 0,0
13.08.2017 03:00:00 21,1 12,2 24 13 37 20 NW 1018,7 - 0,0
13.08.2017 02:00:00 21,1 12,2 18 10 35 19 NNW 1019,5 - 0,0
13.08.2017 01:00:00 21,7 11,7 22 12 34 19 NW 1019,6 - 0,0
13.08.2017 00:00:00 22,3 10,1 18 10 35 19 NW 1019,6 - 0,0
12.08.2017 23:00:00 22,8 9,6 17 9 39 21 NNW 1019,6 - 0,0
12.08.2017 22:00:00 24,0 8,8 20 11 38 20 NNW 1018,8 - 0,0
12.08.2017 21:00:00 25,1 7,2 10 6 39 21 W 1018,1 - 0,0
12.08.2017 20:00:00 26,6 6,1 15 8 41 22 WNW 1017,6 25 0,0
12.08.2017 19:00:00 27,9 5,5 14 8 40 21 WNW 1017,4 - 0,0
12.08.2017 18:00:00 29,0 4,5 16 8 42 23 NW 1017,7 - 0,0
12.08.2017 17:00:00 29,0 6,4 18 10 45 24 NW 1018,0 25 0,0
12.08.2017 16:00:00 28,5 7,1 16 9 39 21 WNW 1018,5 - 0,0
12.08.2017 15:00:00 28,1 5,6 15 8 37 20 NW 1019,1 - 0,0
12.08.2017 14:00:00 27,1 7,5 14 7 45 24 NW 1019,7 25 0,0
12.08.2017 13:00:00 25,7 7,8 13 7 42 23 WNW 1020,7 - 0,0
12.08.2017 12:00:00 24,5 7,6 16 9 37 20 NW 1021,2 - 0,0
12.08.2017 11:00:00 23,3 8,6 14 8 43 23 NNW 1021,7 25 0,0
12.08.2017 10:00:00 21,3 9,5 15 8 34 18 NW 1021,6 - 0,0
12.08.2017 09:00:00 19,6 10,6 5 3 39 21 NNW 1021,6 - 0,0
12.08.2017 08:00:00 17,3 9,7 19 10 43 23 WNW 1021,2 20 0,0
12.08.2017 07:00:00 16,9 9,6 16 9 42 23 NW 1021,1 - 0,0
12.08.2017 06:00:00 17,1 9,0 20 11 46 25 NW 1020,7 - 0,0
12.08.2017 05:00:00 17,3 9,2 16 9 34 18 WNW 1020,9 20 0,0
12.08.2017 04:00:00 17,4 9,6 11 6 38 20 NW 1021,6 - 0,0
12.08.2017 03:00:00 17,6 9,7 16 8 37 20 NW 1021,3 - 0,0
12.08.2017 02:00:00 17,4 9,8 13 7 38 21 NNW 1021,7 - 0,0
12.08.2017 01:00:00 17,9 9,3 18 10 36 20 NW 1021,9 - 0,0
12.08.2017 00:00:00 18,0 9,6 12 7 35 19 NW 1022,0 - 0,0
11.08.2017 23:00:00 18,3 9,1 5 3 33 18 NNW 1021,8 - 0,0
11.08.2017 22:00:00 18,8 9,0 14 8 31 17 NNW 1021,5 - 0,0
11.08.2017 21:00:00 19,6 8,6 18 10 40 21 WNW 1020,6 - 0,0
11.08.2017 20:00:00 20,6 9,2 12 7 44 24 NW 1020,3 20 0,0
11.08.2017 19:00:00 21,6 8,5 14 8 50 27 NNW 1020,2 - 0,0
11.08.2017 18:00:00 21,9 8,0 21 11 49 26 NW 1020,0 - 0,0
11.08.2017 17:00:00 22,3 8,0 20 11 56 30 NNW 1020,0 20 0,0
11.08.2017 16:00:00 23,0 8,3 18 10 49 27 NNW 1019,9 - 0,0
11.08.2017 15:00:00 23,0 8,7 16 9 51 28 NNW 1020,0 - 0,0
11.08.2017 14:00:00 23,1 8,8 14 8 45 24 NNW 1020,0 20 0,0
11.08.2017 13:00:00 23,0 9,4 18 10 46 25 NNW 1020,2 - 0,0
11.08.2017 12:00:00 22,1 9,3 18 10 43 23 NW 1020,2 - 0,0
11.08.2017 11:00:00 21,1 9,0 16 8 48 26 NW 1020,1 20 0,0
11.08.2017 10:00:00 20,1 9,0 14 8 49 26 NW 1020,4 - 0,0
11.08.2017 09:00:00 18,8 8,4 23 12 55 30 NW 1020,4 - 0,0
11.08.2017 08:00:00 17,8 9,4 16 9 45 24 NW 1019,9 20 0,0
11.08.2017 07:00:00 17,0 9,9 13 7 31 17 NW 1019,9 - 0,0
11.08.2017 06:00:00 17,0 10,1 11 6 27 15 NW 1019,4 - 0,0
11.08.2017 05:00:00 17,2 9,1 16 9 34 19 WNW 1019,0 20 0,0
11.08.2017 04:00:00 17,0 9,4 10 5 35 19 WNW 1019,2 - 0,0
11.08.2017 03:00:00 17,1 10,2 11 6 28 15 WNW 1019,7 - 0,0
11.08.2017 02:00:00 17,5 9,9 11 6 35 19 WNW 1020,3 - 0,0
11.08.2017 01:00:00 17,7 10,3 14 8 34 18 WNW 1020,2 - 0,0
11.08.2017 00:00:00 18,2 10,6 12 6 44 24 NW 1020,6 - 0,0
10.08.2017 23:00:00 19,4 10,4 18 10 44 24 WNW 1019,7 - 0,0
10.08.2017 22:00:00 19,6 10,0 14 8 34 19 NW 1019,7 - 0,0
10.08.2017 21:00:00 19,9 10,0 12 7 38 21 W 1019,2 - 0,0
10.08.2017 20:00:00 21,3 9,2 17 9 39 21 NW 1018,9 - 0,0
10.08.2017 19:00:00 22,7 9,1 17 9 43 23 WNW 1018,4 - 0,0
10.08.2017 18:00:00 23,6 9,2 17 9 46 25 NW 1018,0 - 0,0
10.08.2017 17:00:00 24,5 9,6 13 7 47 25 NW 1018,2 20 0,0

tt = Température de l'air
td = dewpoint
ff = Vitesse du vent
fx = gusts
dd = Direction du vent
ppp = reduced air pressure
vv = visibility
rr = Quantités de précipitations

stations d'obs. à proximité